Location: Branche des Alpilles
(43.6087°N, 4.6976°E)
Time: 14:52:26
(UTC+00:00)

Cosmos 2228 Rocket - Visible Passes

Search period start: 20 April 2021 00:00
Search period end: 30 April 2021 00:00
Orbit: 617 x 653 km, 82.5° (Epoch: 19 April)

Date Brightness Start Highest point End Pass type
(mag) Time Alt. Az. Time Alt. Az. Time Alt. Az.
20 Apr 5.2 01:03:56 21° NNW 01:03:56 21° NNW 01:05:40 10° N visible
20 Apr 5.5 23:48:36 19° NNE 23:48:36 19° NNE 23:49:57 10° NNE visible
21 Apr 5.5 01:26:04 14° NW 01:26:04 14° NW 01:27:16 10° NNW visible
22 Apr 5.2 00:10:43 24° N 00:10:43 24° N 00:12:30 10° N visible
22 Apr 5.9 22:55:22 11° NE 22:55:22 11° NE 22:55:30 10° NE visible
23 Apr 5.2 00:32:50 23° NNW 00:32:50 23° NNW 00:34:42 10° N visible
23 Apr 5.5 23:17:28 18° NE 23:17:28 18° NE 23:18:45 10° NNE visible
24 Apr 5.4 00:54:56 17° NW 00:54:56 17° NW 00:56:29 10° NNW visible
24 Apr 5.2 23:39:33 25° NNE 23:39:33 25° NNE 23:41:24 10° NNE visible
25 Apr 5.8 01:17:02 10° NW 01:17:02 10° NW 01:17:06 10° NW visible
26 Apr 5.1 00:01:38 26° NNW 00:01:38 26° NNW 00:03:42 10° N visible
26 Apr 5.4 22:46:14 17° NE 22:46:14 17° NE 22:47:31 10° NNE visible
27 Apr 5.3 00:23:43 20° NW 00:23:43 20° NW 00:25:37 10° NNW visible
27 Apr 5.0 23:08:17 26° NNE 23:08:17 26° NNE 23:10:17 10° NNE visible
28 Apr 5.7 00:45:46 12° NW 00:45:46 12° NW 00:46:48 10° NW visible
28 Apr 4.8 23:30:20 30° N 23:30:20 30° N 23:32:41 10° N visible
29 Apr 5.3 22:14:54 16° NE 22:14:54 16° NE 22:16:13 10° NE visible
29 Apr 5.0 23:52:22 24° NW 23:52:22 24° NW 23:54:43 10° N visible
